Location: Cochran
(32.3868°N, 83.3546°W)
Time: 00:53:55
(UTC+00:00)

STARLINK-57 - Pass Details

Date: 18 February 2020
Orbit: 529 x 531 km, 53.0° (Epoch: 28 March)

Event Time Altitude Azimuth Distance (km) Brightness Sun altitude
Rises 23:34:22 0° 222° (SW) 2,649 8.1 -3.5°
Reaches altitude 10° 23:36:34 10° 222° (SW) 1,763 7.1 -3.9°
Maximum altitude 23:40:34 88° 133° (SE) 532 3.6 -4.7°
Drops below altitude 10° 23:44:36 10° 44° (NE) 1,775 5.7 -5.6°
Enters shadow 23:46:17 - 44° (NE) 2,457 6.4 -5.9°
